Terminal Aerodrome Forecast
Issued by NWS

Home | Current Version | Previous Version | Text Only | Print | Product List | Glossary On
Versions: 1 2 3 4 5 6 7 8 9 10 11 12 13 14 15 16 17
000
FTUS43 KLSX 022328
TAFUIN
TAF
KUIN 022328Z 0300/0324 24008KT P6SM SCT050 SCT150
     FM030900 32006KT P6SM FEW030 SCT100=

USA.gov is the U.S. government's official web portal to all federal, state and local government web resources and services.